Weather in Paytug

Uzbekistan     40°53′46″N   72°14′54″E
temp.,
°C
wind,
m/s
gust,
m/s
humid.,
%
clouds,
%
prec.,
mm/h
press.,
hPa
HPBL,
m
26 january, tue
tue2623:00−2ene126997 0.0 103121
02:00−3ene226752 0.0 103221
05:00−3ene226226 0.0 103223
08:00−3ene12570 0.0 103326
11:00+2e22430 0.0 1030275
14:00+4e11390 0.0 1028374
17:00+2ene12530 0.0 102922
20:00−1ene23621 0.0 103143
27 january, wed
wed2723:00−1ene23540 0.0 103141
02:00−2ene22515 0.0 103134
05:00−2ene22485 0.0 103133
08:00−2ene22470 0.0 103339
11:00+3ene223311 0.0 1029314
14:00+5ene113023 0.0 1028463
17:00+3ne224511 0.0 102922
20:000ene23530 0.0 103144
28 january, thu
thu2823:00−1ene23470 0.0 103144
02:00−1ene23440 0.0 103134
05:00−2ene23430 0.0 103137
08:00−2ene22400 0.0 103142
11:00+3e22280 0.0 1028349
14:00+6ene11250 0.0 1026502
17:00+3ne23390 0.0 102827
20:000ene33500 0.0 103055
29 january, fri
fri2923:00−1ene23450 0.0 103147
02:00−1ne22430 0.0 103136
05:00−2ene22410 0.0 103233
08:00−2ne22390 0.0 103340
11:00+4e12260 0.0 1030344
14:00+7ne11240 0.0 1028489
17:00+4ne22400 0.0 102936
20:00+1ne23480 0.0 103163
30 january, sat
sat3023:00−1ne23410 0.0 103250
02:00−1ne23390 0.0 103143
05:00−2ne23380 0.0 102946
08:00−2ne22360 0.0 102951
11:00+4ene23230 0.0 1025363
14:00+7ene34240 0.0 1020448
17:00+4ne34380 0.0 102179
20:000ene34440 0.0 102371